Regional Weather Roundup
Issued by NWS

Home | Current Version | Previous Version | Graphics & Text | Print | Product List | Glossary On
Versions: 1 2 3 4 5 6 7 8 9 10 11 12 13 14 15 16 17 18 19 20 21 22 23 24 25 26 27 28 29 30 31 32 33 34 35 36 37 38 39 40 41 42 43 44 45 46 47 48 49 50
000
ASUS43 KDMX 182306
RWRIA

WEATHER ROUNDUP FOR IOWA
NATIONAL WEATHER SERVICE DES MOINES IA
500 PM CST WED JAN 18 2017

NOTE: "FAIR" INDICATES FEW OR NO CLOUDS BELOW 12,000 FEET WITH NO
SIGNIFICANT WEATHER AND/OR OBSTRUCTIONS TO VISIBILITY.

* - THESE STATIONS ARE NOT NWS STATIONS...THUS NOT UNDER NWS
QUALITY CONTROL.  THEY ALSO DO NOT REPORT WEATHER SUCH
AS PRECIPITATION OR FOG.

IAZ001>003-012>014-020>022-031>034-043>046-190000-
   NORTHWEST IOWA

CITY           SKY/WX    TMP DP  RH WIND       PRES   REMARKS
CARROLL *      CLEAR     43  39  87 S13       29.91S
CHEROKEE *     CLEAR     43  40  91 SE7       29.88R
DENISON *      CLEAR     45  39  81 S13G20    29.88S
LE MARS *      CLEAR     45  39  81 SE9       29.86S
ORANGE CITY *  CLEAR     43  39  87 S7        29.85S
SHELDON *      CLEAR     41  41 100 S14       29.83S
SIOUX CITY     CLEAR     48  39  71 SE7       29.86S
SPENCER        CLEAR     41  38  89 S13       29.87R
STORM LAKE *   CLEAR     41  37  87 S12       29.88S
$$

IAZ055>058-069>071-079>083-090>094-190000-
   SOUTHWEST IOWA

CITY           SKY/WX    TMP DP  RH WIND       PRES   REMARKS
ATLANTIC *     CLEAR     45  39  81 S10       29.92F
AUDUBON *      CLEAR     43  37  81 S7        29.93S
CLARINDA *     CLEAR     45  39  81 S7        29.97S
COUNCIL BLFS * CLEAR     48  39  71 S12       29.90F
CRESTON *      CLEAR     39  36  87 S10       29.97S WCI  32
HARLAN  *      CLEAR     43  41  93 S7G13     29.95R
LAMONI         CLEAR     38  35  89 S3        29.98F
RED OAK *      CLEAR     45  39  81 S8        29.94S
SHENANDOAH *   CLEAR     46  39  76 S9        29.95S
$$

IAZ047>049-059>061-072>074-084-190000-
   CENTRAL IOWA

CITY           SKY/WX    TMP DP  RH WIND       PRES   REMARKS
AMES           CLEAR     41  36  82 S6        29.96S
ANKENY *       CLEAR     43  36  75 S10       29.98F
BOONE *        CLEAR     45  36  70 S10G16    29.94S
CHARITON *     CLEAR     37  34  87 S10       29.99S WCI  30
DES MOINES     CLEAR     42  35  76 S9        29.97F
GRINNELL*      CLEAR     40  36  84 S9        30.00S WCI  35
KNOXVILLE *    CLEAR     39  34  81 S10       29.98S WCI  32
MARSHALLTOWN   CLEAR     39  36  89 S8        29.97R WCI  33
NEWTON *       CLEAR     41  36  81 S9        29.98S
PELLA *        CLEAR     42  35  77 S8        30.01S
PERRY *          N/A     41  39  93 S9        29.95R
$$

IAZ004>006-015-016-023>025-035-036-190000-
   NORTH CENTRAL IOWA

CITY           SKY/WX    TMP DP  RH WIND       PRES   REMARKS
ALGONA *       CLEAR     39  37  93 S14       29.90R WCI  31
CLARION *      CLEAR     39  39 100 S10       29.93S WCI  32
ESTHERVILLE    CLEAR     38  36  92 S10       29.86R WCI  31
FORT DODGE *   CLEAR     43  36  75 S8        29.93S
MASON CITY     CLEAR     35  32  88 S12       29.93R WCI  27
FOREST CITY *    N/A     36  36 100 S8        29.92R WCI  29
WEBSTER CITY * CLEAR     41  39  93 S10       29.92R
IOWA FALLS *     N/A     39  36  89 S8        29.96R WCI  33
$$

IAZ007>011-017>019-026>030-037>042-050>054-066-190000-
   NORTHEAST IOWA

CITY           SKY/WX    TMP DP  RH WIND       PRES   REMARKS
CEDAR RAPIDS   CLEAR     36  34  92 S7        30.01R FOG     WCI  30
CHARLES CITY * CLEAR     34  34 100 S10       29.96R WCI  26
CLINTON *      CLEAR     35  32  88 CALM      30.06R
DECORAH *      CLOUDY    32  32 100 S8        29.96S FOG     WCI  25
DUBUQUE        CLOUDY    33  31  92 S10       30.02R FOG     WCI  25
MONTICELLO *   CLOUDY    36  34  93 S6        30.03R WCI  31
OELWEIN *      CLOUDY    34  34 100 S15       29.99R FOG     WCI  24
WATERLOO       CLEAR     35  32  88 S6        29.99R WCI  30
$$

IAZ064-065-067-068-078-190000-
   EAST CENTRAL IOWA

CITY           SKY/WX    TMP DP  RH WIND       PRES   REMARKS
DAVENPORT      CLEAR     38  33  82 S7        30.04F WCI  33
IOWA CITY      CLEAR     40  35  83 S7        30.04S
MUSCATINE *    CLEAR     39  34  81 S8        30.05S WCI  34
QUAD CITIES    CLEAR     40  34  79 S6        30.03F
$$

IAZ062-063-075>077-085>089-095>099-190000-
   SOUTHEAST IOWA

CITY           SKY/WX    TMP DP  RH WIND       PRES   REMARKS
BURLINGTON     CLOUDY    40  36  86 S9        30.04F WCI  34
FAIRFIELD *    CLEAR     41  36  81 S8        30.03S
FORT MADISON * CLEAR     41  36  81 S6        30.05S
KEOKUK *       CLEAR     41  36  81 S8        30.05S
OSKALOOSA *      N/A     39  35  84 SW6       30.02S
OTTUMWA        CLEAR     41  34  76 S12       30.01S
WASHINGTON *   CLEAR     39  36  87 S6        30.05S WCI  35
$$

ABBREVIATIONS USED IN REMARKS
   TC - TEMPERATURES IN CELSIUS
  WCI - WIND CHILL INDEX
   HX - HEAT INDEX
  VSB - VISIBILITY
$$





USA.gov is the U.S. government's official web portal to all federal, state and local government web resources and services.